This demonstration page uses our WeatherBlox Daily Observations layout. Learn more.

Left ArrowRight Arrow

39.51506, -84.39828

Hourly Observations for May 10, 2020

Temp ( °F °C ) Dew Point ( °F °C ) Humidity (%) Winds ( mph kmh ) Pressure ( in mb ) Visibility ( mi km ) Precip ( " mm )
12:15 am 00:15 undefined 36 2.4 32 -0.1 84 84 Calm 30.25 1024 N/A 0 0
12:35 am 00:35 undefined 36 2 33 0.3 89 89 Calm 30.25 1024 N/A 0 0
12:55 am 00:55 undefined 35 1.7 32 0.1 89 89 Calm 30.25 1024 N/A 0 0
1:15 am 01:15 undefined 36 2.1 33 0.3 88 88 Calm 30.25 1024 N/A 0 0
1:35 am 01:35 undefined 35 1.6 33 0.3 91 91 Calm 30.24 1024 N/A 0 0
1:55 am 01:55 undefined 35 1.7 32 0.2 90 90 Calm 30.24 1024 N/A 0 0
2:15 am 02:15 undefined 35 1.7 32 0.1 89 89 Calm 30.23 1024 N/A 0 0
2:35 am 02:35 undefined 35 1.7 33 0.6 93 93 Calm 30.22 1023 N/A 0 0
2:55 am 02:55 undefined 36 2.2 33 0.7 90 90 Calm 30.21 1023 N/A 0 0
3:15 am 03:15 undefined 37 3 34 1.3 89 89 Calm 30.21 1023 N/A 0 0
3:35 am 03:35 undefined 37 2.7 35 1.7 93 93 Calm 30.2 1023 N/A 0 0
3:55 am 03:55 undefined 38 3.3 36 2.4 94 94 Calm 30.2 1023 N/A 0 0
4:15 am 04:15 Mostly Cloudy 38 3.6 36 2.3 91 91 Calm 30.19 1022 N/A 0 0
4:35 am 04:35 Mostly Cloudy 38 3.5 35 1.8 89 89 Calm 30.19 1022 N/A 0 0
4:55 am 04:55 Cloudy 39 3.7 36 2.3 91 91 Calm 30.19 1022 N/A 0 0
5:15 am 05:15 Cloudy 39 4 37 2.6 91 91 Calm 30.17 1022 N/A 0 0
5:35 am 05:35 Mostly Cloudy 40 4.2 36 2.1 86 86 Calm 30.17 1022 N/A 0 0
5:55 am 05:55 Cloudy 42 5.3 33 0.7 73 73 SW 5 7 30.16 1021 N/A 0 0
6:15 am 06:15 Cloudy 42 5.3 34 1.2 75 75 Calm 30.16 1021 N/A 0 0
6:35 am 06:35 Cloudy 42 5.8 31 -0.3 65 65 SSW 5 7 30.15 1021 N/A 0 0
6:55 am 06:55 Mostly Cloudy 42 5.3 33 0.5 71 71 SSW 8 13 30.17 1022 N/A 0 0
7:15 am 07:15 Cloudy 42 5.8 34 1 72 72 SSW 7 11 30.17 1022 N/A 0 0
7:35 am 07:35 Cloudy 43 5.9 35 1.8 75 75 SW 6 9 30.17 1022 N/A 0 0
7:55 am 07:55 Cloudy 43 6.2 36 2.3 76 76 Calm 30.16 1021 N/A 0 0
8:15 am 08:15 Cloudy 44 6.8 36 2.1 72 72 SSW 5 7 30.16 1021 N/A 0 0
8:35 am 08:35 Cloudy 46 7.8 35 1.7 66 66 SW 5 7 30.15 1021 N/A 0 0
8:55 am 08:55 Cloudy 47 8.6 34 0.9 59 59 SSW 7 11 30.14 1021 N/A 0 0
9:15 am 09:15 Cloudy 49 9.4 33 0.6 55 55 SSW 12 19 30.14 1021 N/A 0 0
9:35 am 09:35 Cloudy 50 9.8 33 0.5 53 53 SSW 9 15 30.13 1020 N/A 0 0
9:55 am 09:55 Cloudy 50 10 33 0.5 52 52 SSW 10 17 30.12 1020 N/A 0 0
10:15 am 10:15 Cloudy 51 10.7 34 1.3 53 53 SSW 10 17 30.12 1020 N/A 0 0
10:35 am 10:35 Partly Cloudy 52 11 34 1.2 51 51 S 8 13 30.11 1020 N/A 0 0
10:55 am 10:55 Cloudy 54 12.2 36 2.1 50 50 SSW 10 17 30.1 1019 N/A 0 0
11:15 am 11:15 Cloudy 52 10.9 37 3 58 58 WSW 12 19 30.12 1020 N/A 0 0
11:35 am 11:35 Cloudy 53 11.5 38 3.5 58 58 SW 13 20 30.09 1019 N/A 0 0
11:55 am 11:55 Partly Cloudy 56 13.5 38 3.4 51 51 SSW 13 20 30.07 1018 N/A 0 0
12:15 pm 12:15 Mostly Cloudy 58 14.6 37 2.7 45 45 SW 17 28 30.06 1018 N/A 0 0
12:35 pm 12:35 Mostly Cloudy 60 15.4 38 3.6 45 45 SW 21 33 30.04 1017 N/A 0 0
12:55 pm 12:55 Mostly Cloudy 61 16.1 40 4.2 45 45 SSW 16 26 30.02 1017 N/A 0 0
1:15 pm 13:15 Partly Cloudy 62 16.5 40 4.3 45 45 SSW 18 30 30 1016 N/A 0 0
1:35 pm 13:35 Sunny 63 17 39 4.1 43 43 SSW 21 33 29.99 1016 N/A 0 0
1:55 pm 13:55 Partly Cloudy 63 17.3 39 4.1 42 42 SW 22 35 29.98 1015 N/A 0 0
2:15 pm 14:15 Sunny 64 17.8 40 4.3 41 41 SW 25 41 29.96 1015 N/A 0 0
2:35 pm 14:35 Sunny 65 18.1 40 4.7 41 41 SSW 24 39 29.93 1014 N/A 0 0
2:55 pm 14:55 Partly Cloudy 65 18.1 40 4.4 41 41 SSW 28 44 29.92 1013 N/A 0 0
3:15 pm 15:15 Mostly Cloudy with Nearby Thunderstorms 62 16.8 38 3.6 42 42 SSW 24 39 29.91 1013 N/A 0 0
3:35 pm 15:35 Cloudy with Thunderstorms 50 9.9 45 7.1 83 83 W 25 41 30.02 1017 N/A 0 0
3:55 pm 15:55 Partly Cloudy with Nearby Thunderstorms 51 10.6 46 8 84 84 WSW 13 20 30 1016 N/A 0 0
4:15 pm 16:15 Cloudy with Nearby Thunderstorms 51 10.8 46 7.7 81 81 W 14 22 29.99 1015 N/A 0 0
4:35 pm 16:35 Mostly Cloudy 55 13 48 9 77 77 WSW 14 22 29.96 1015 N/A 0 0
4:55 pm 16:55 Partly Cloudy 58 14.5 49 9.4 72 72 WNW 10 17 29.96 1014 N/A 0 0
5:15 pm 17:15 Mostly Cloudy 57 14 48 9.1 73 73 WNW 6 9 29.96 1015 N/A 0 0
5:35 pm 17:35 Mostly Cloudy 58 14.5 42 5.8 56 56 WNW 14 22 29.97 1015 N/A 0 0
5:55 pm 17:55 Mostly Cloudy 58 14.4 39 3.7 49 49 WNW 20 31 29.98 1015 N/A 0 0
6:15 pm 18:15 Partly Cloudy 58 14.5 39 3.8 49 49 WNW 16 26 29.98 1015 N/A 0 0
6:35 pm 18:35 Partly Cloudy 56 13.4 38 3.2 50 50 WNW 21 33 30 1016 N/A 0 0
6:55 pm 18:55 Mostly Cloudy 55 12.5 37 2.7 52 52 WNW 20 31 30 1016 N/A 0 0
7:15 pm 19:15 Cloudy 53 11.8 37 2.6 54 54 WNW 23 37 30.01 1016 N/A 0 0
7:35 pm 19:35 Cloudy 52 11.3 37 2.8 56 56 WNW 18 30 30.03 1017 N/A 0 0
7:55 pm 19:55 Cloudy 51 10.7 36 2 55 55 WNW 18 30 30.03 1017 N/A 0 0
8:15 pm 20:15 Cloudy 50 10.2 37 3 61 61 WNW 13 20 30.04 1017 N/A 0 0
8:35 pm 20:35 Cloudy 50 10 36 2.4 60 60 W 23 37 30.05 1018 N/A 0 0
8:55 pm 20:55 Cloudy 49 9.4 36 2.3 62 62 W 14 22 30.05 1018 N/A 0 0
9:15 pm 21:15 Cloudy 48 9.1 35 1.9 61 61 WNW 17 28 30.05 1018 N/A 0 0
9:35 pm 21:35 Mostly Cloudy 48 8.7 35 1.9 63 63 WNW 15 24 30.04 1017 N/A 0 0
9:55 pm 21:55 Cloudy 48 8.8 36 2 63 63 WNW 14 22 30.04 1017 N/A 0 0
10:15 pm 22:15 Mostly Cloudy 48 8.8 36 2 63 63 W 13 20 30.05 1018 N/A 0 0
10:35 pm 22:35 Cloudy 47 8.6 36 2 64 64 W 20 31 30.06 1018 N/A 0 0
10:55 pm 22:55 Cloudy 47 8.1 36 2.1 66 66 W 16 26 30.06 1018 N/A 0 0
11:15 pm 23:15 Cloudy 46 7.9 36 2.3 68 68 W 14 22 30.06 1018 N/A 0 0
11:35 pm 23:35 Cloudy 46 7.8 36 2.3 68 68 W 17 28 30.05 1018 N/A 0 0
11:55 pm 23:55 Cloudy 46 7.6 36 2.2 69 69 W 24 39 30.07 1018 N/A 0 0

Powered by AerisWeather